Weather History for Sedalia, MO

Change the Weather History Date:

Friday, July 4, 2014

  Actual Average Record
Temperature  
Mean Temperature 69 °F 78 °F  
Max Temperature 82 °F 88 °F 103 °F (1954)
Min Temperature 56 °F 69 °F 52 °F (1940)
Degree Days  
Heating Degree Days 0 0  
Month to date heating degree days 0 0  
Since 1 June heating degree days 0 6  
Since 1 July heating degree days 0 0  
Cooling Degree Days 4 14  
Month to date cooling degree days 21 53  
Year to date cooling degree days 528 496  
Since 1 June cooling degree days 333 357  
Growing Degree Days 20 (Base 50)    
Moisture  
Dew Point 58 °F    
Average Humidity 68    
Maximum Humidity 93    
Minimum Humidity 43    
Precipitation  
Precipitation 0.00 in 0.13 in 2.00 in (1984)
Month to date precipitation 0.15 0.53  
Year to date precipitation 17.63 20.77  
Sea Level Pressure  
Sea Level Pressure 30.25 in    
Wind  
Wind Speed 6 mph (SE)    
Max Wind Speed 13 mph    
Max Gust Speed 17 mph    
Visibility 10 miles    
Events      
T = Trace of Precipitation, MM = Missing Value Source: NWS Daily Summary

Daily Weather History Graph

Daily Weather History Graph

Search for Another Location

Airport:

Trip Planner

Search our weather history database for the weather conditions in past years. The results will help you decide how hot, cold, wet, or windy it might be!

Date:

Astronomy

Jul. 04, 2014 Rise Set
Actual Time 5:53 AM CDT 8:40 PM CDT
Civil Twilight 5:21 AM CDT 9:12 PM CDT
Nautical Twilight 4:41 AM CDT 9:52 PM CDT
Astronomical Twilight 3:56 AM CDT 10:37 PM CDT
Moon 12:45 PM CDT (7/4) 12:07 AM CDT (7/4)
Length of Visible Light 15h 51m
Length of Day
14h 47m
Waxing Crescent, 42% of the Moon is Illuminated
Jul 4
Waxing Crescent
Jul 5
First Quarter
Jul 12
Full
Jul 18
Last Quarter
Jul 26
New

Hourly Weather History & Observations

Time (CDT) Temp. Heat Index Dew Point Humidity Pressure Visibility Wind Dir Wind Speed Gust Speed Precip Events Conditions
12:53 AM 63.0 °F - 55.9 °F 78% 30.23 in 10.0 mi South 4.6 mph - N/A   Clear
1:53 AM 62.1 °F - 55.9 °F 80% 30.25 in 10.0 mi Calm Calm - N/A   Clear
2:53 AM 60.1 °F - 55.0 °F 83% 30.25 in 10.0 mi South 4.6 mph - N/A   Clear
3:53 AM 59.0 °F - 55.0 °F 87% 30.26 in 10.0 mi South 4.6 mph - N/A   Clear
4:53 AM 60.1 °F - 55.9 °F 86% 30.25 in 10.0 mi South 3.5 mph - N/A   Clear
5:53 AM 57.9 °F - 55.0 °F 90% 30.26 in 10.0 mi NNE 4.6 mph - N/A   Clear
6:53 AM 57.9 °F - 55.9 °F 93% 30.27 in 10.0 mi Calm Calm - N/A   Clear
7:53 AM 66.0 °F - 59.0 °F 78% 30.28 in 10.0 mi Calm Calm - N/A   Clear
8:53 AM 71.1 °F - 61.0 °F 70% 30.29 in 10.0 mi Calm Calm - N/A   Clear
9:53 AM 75.0 °F - 60.1 °F 60% 30.30 in 10.0 mi South 3.5 mph - N/A   Clear
10:53 AM 78.1 °F - 55.9 °F 46% 30.29 in 10.0 mi SE 4.6 mph - N/A   Clear
11:53 AM 78.1 °F - 55.9 °F 46% 30.29 in 10.0 mi East 6.9 mph - N/A   Clear
12:53 PM 80.1 °F 80.7 °F 59.0 °F 48% 30.28 in 10.0 mi South 10.4 mph - N/A   Clear
1:53 PM 82.0 °F 82.0 °F 57.9 °F 44% 30.27 in 10.0 mi ESE 8.1 mph - N/A   Partly Cloudy
2:53 PM 79.0 °F - 57.9 °F 48% 30.25 in 10.0 mi SE 6.9 mph - N/A   Scattered Clouds
3:53 PM 80.1 °F 80.7 °F 59.0 °F 48% 30.24 in 10.0 mi SSE 10.4 mph - N/A   Partly Cloudy
4:53 PM 82.0 °F 82.1 °F 59.0 °F 45% 30.23 in 10.0 mi SE 6.9 mph - N/A   Clear
5:53 PM 79.0 °F - 59.0 °F 50% 30.22 in 10.0 mi SSE 10.4 mph - N/A   Mostly Cloudy
6:53 PM 80.1 °F 80.7 °F 59.0 °F 48% 30.21 in 10.0 mi SSE 9.2 mph - N/A   Clear
7:53 PM 77.0 °F - 60.1 °F 56% 30.20 in 10.0 mi SE 6.9 mph - N/A   Clear
8:53 PM 72.0 °F - 61.0 °F 68% 30.19 in 10.0 mi ESE 5.8 mph - N/A   Clear
9:53 PM 69.1 °F - 60.1 °F 73% 30.20 in 10.0 mi ESE 5.8 mph - N/A   Clear
10:53 PM 69.1 °F - 60.1 °F 73% 30.20 in 10.0 mi SE 9.2 mph - N/A   Clear
11:53 PM 68.0 °F - 59.0 °F 73% 30.20 in 10.0 mi SE 8.1 mph - N/A   Clear